Theta_e
343 346 347 348 348 349 349 349 348 347 348 349 348 347 348 346 344 345 348 346 342 342 343 343 343 342 343 345 344 344 346 346 350 352 347 345 349 352 352 353 353 353
343 346 347 348 348 348 348 349 350 350 348 347 348 349 348 344 341 340 342 343 342 344 344 342 344 342 342 346 345 344 345 343 347 354 351 346 350 353 352 353 353 353
343 346 346 348 349 349 349 349 349 350 350 349 348 348 347 345 344 342 340 341 344 347 346 344 345 345 343 344 344 345 348 345 347 354 353 347 349 352 353 353 352 353
340 343 346 350 351 350 351 351 350 349 350 351 350 349 349 348 349 347 342 341 343 345 346 345 345 347 346 344 343 345 348 348 348 349 349 347 348 349 351 353 353 352
338 339 344 350 352 352 351 351 351 350 350 351 351 350 349 346 347 349 348 345 343 344 346 346 345 345 345 343 341 345 349 351 351 349 346 346 348 350 352 354 353 353
341 338 340 346 350 351 351 352 351 351 351 351 351 351 350 347 346 349 352 351 349 349 350 350 350 349 349 347 343 344 348 352 355 354 349 346 349 352 354 355 354 353
346 342 342 345 348 349 350 351 351 351 351 352 352 352 352 351 350 349 350 351 351 352 352 353 352 349 349 350 346 343 345 347 349 349 346 345 348 349 350 353 353 350
349 348 347 348 349 350 351 351 352 352 351 351 352 352 352 352 352 352 351 350 351 352 351 351 350 346 346 350 350 348 347 349 350 349 345 345 345 344 344 348 351 349
350 351 350 350 351 352 352 352 352 352 351 351 352 353 352 352 352 352 352 351 350 350 349 347 347 346 348 350 350 348 347 349 352 353 351 349 348 348 347 349 351 352
352 351 351 352 351 352 353 352 352 352 353 352 352 352 353 353 352 353 352 350 347 347 346 345 346 347 349 351 351 349 348 349 350 350 350 350 351 351 350 351 352 353
353 353 352 352 352 351 352 352 351 352 352 353 352 352 353 354 354 353 352 350 349 350 350 348 348 348 349 351 353 354 354 353 353 351 349 349 350 349 348 349 350 352
350 353 353 353 353 352 351 351 351 351 352 353 353 353 353 354 354 354 354 352 351 351 353 352 350 350 349 349 352 355 355 355 355 354 353 353 352 352 352 351 352 353
346 350 353 354 353 353 352 352 351 350 351 352 353 353 353 353 354 354 355 355 353 352 353 354 352 351 349 347 349 354 355 355 355 355 356 355 354 354 355 354 354 355
345 346 349 351 353 353 353 352 352 351 351 353 354 354 353 353 353 354 354 355 355 354 354 355 355 353 351 349 349 352 354 355 356 355 355 355 355 355 355 355 355 355
348 345 345 347 349 350 350 351 353 352 352 353 354 354 354 353 353 354 354 354 355 355 355 355 355 355 355 354 352 353 355 355 356 356 355 355 355 355 355 355 355 355
349 348 346 345 346 346 345 348 352 354 354 354 355 355 354 354 354 354 355 355 355 355 356 355 355 355 355 354 352 353 354 355 356 356 357 356 354 353 352 351 350 350
349 350 348 346 347 346 346 346 348 351 353 354 355 355 353 353 354 354 354 355 355 355 355 354 354 354 353 352 351 352 352 354 355 356 357 356 353 351 350 349 349 350
349 350 349 348 347 347 347 346 346 347 348 349 351 354 353 352 352 353 353 354 354 354 354 353 353 353 352 351 351 351 351 352 353 354 355 355 354 353 352 352 353 353
352 351 351 350 349 347 346 346 346 347 347 346 347 350 352 353 353 353 353 353 354 354 355 355 354 352 352 352 352 352 352 352 352 352 351 352 352 352 351 352 353 352
355 354 353 352 351 350 348 346 346 346 347 347 346 346 347 349 352 354 355 354 354 355 355 355 353 351 351 352 352 352 351 351 352 352 351 349 350 350 351 352 352 351
355 355 355 354 353 352 351 349 347 347 346 347 347 346 345 346 349 352 355 355 355 355 354 354 354 352 351 350 350 350 349 349 350 351 351 350 349 350 350 349 348 349
353 354 355 356 355 354 354 352 351 350 349 347 347 347 347 347 346 349 351 352 353 353 353 353 353 351 350 350 349 348 347 347 347 347 348 349 348 349 350 350 351 353
352 352 353 354 353 352 352 351 351 352 351 349 348 348 348 348 346 347 348 349 349 350 351 352 351 350 349 349 348 348 347 347 346 346 347 348 350 351 352 354 354 353
351 351 352 351 350 349 350 349 350 351 351 350 349 350 350 349 349 349 348 348 348 348 350 351 351 350 349 349 348 348 347 347 347 346 346 347 350 352 353 354 353 350
351 350 350 350 349 348 349 349 348 348 349 349 349 349 349 349 349 349 349 348 348 348 348 349 349 349 348 348 348 348 348 347 347 347 347 348 350 352 353 354 352 350
349 348 347 347 346 346 346 347 347 348 348 348 347 347 348 348 348 348 348 348 347 347 347 347 347 347 346 347 348 348 349 349 349 349 349 348 349 350 351 351 351 349
Wind_Speed
18 17 15 13 13 12 11 11 11 10 10 10 9 9 9 10 10 10 10 9 9 8 8 8 8 8 7 7 7 7 7 6 6 7 7 7 6 6 7 7 7 8
19 18 16 14 13 13 12 12 11 10 11 10 10 9 10 10 10 11 10 10 9 9 9 9 8 8 8 7 8 8 8 8 7 6 8 7 6 6 7 7 8 8
18 17 16 15 13 13 12 11 11 11 10 10 10 10 9 9 9 10 11 10 9 9 9 9 8 8 9 9 9 8 8 9 8 7 9 9 7 7 7 7 7 7
18 17 16 14 13 12 11 11 12 11 10 9 9 9 9 9 9 10 11 11 11 10 9 9 9 9 10 10 10 9 9 9 9 9 10 9 8 8 8 7 8 7
18 17 16 15 13 12 11 11 11 10 10 10 9 9 10 11 11 9 9 10 11 10 10 10 10 10 10 11 11 10 9 8 8 10 11 10 9 8 7 8 8 8
18 17 17 16 15 14 13 12 11 11 10 10 10 10 10 11 11 10 9 10 10 10 10 9 10 10 10 11 11 11 10 9 9 11 12 10 9 8 8 8 9 9
18 17 17 16 15 15 14 13 12 12 11 11 10 10 11 10 11 11 11 11 10 10 10 10 11 11 10 11 12 12 11 11 11 12 12 11 10 10 10 9 10 11
17 17 17 16 15 15 14 14 13 13 12 12 11 11 11 11 11 11 12 12 11 11 11 11 12 12 11 11 11 12 12 11 10 12 12 12 12 12 11 11 11 12
16 16 16 16 16 15 14 14 13 13 13 13 12 11 11 12 12 11 12 13 13 13 13 13 13 13 12 11 12 13 13 12 11 11 12 12 12 12 12 11 11 12
17 16 16 16 16 15 15 14 14 13 13 13 13 12 11 12 12 12 13 14 14 14 14 14 13 13 12 12 12 13 13 13 13 13 13 13 13 13 12 12 12 12
17 16 17 16 16 16 15 15 15 14 13 13 13 13 12 11 12 12 13 14 14 13 13 13 13 13 13 13 12 12 12 13 13 14 14 14 14 14 14 13 14 13
18 17 17 17 17 16 15 15 15 15 14 14 13 13 13 12 12 11 12 13 13 13 12 13 13 13 14 14 13 13 13 13 13 14 14 14 14 14 14 14 14 14
18 18 18 17 17 16 16 15 15 15 15 14 13 13 13 12 12 12 11 12 12 12 12 12 13 14 15 15 15 14 13 14 14 14 14 14 14 13 13 14 13 13
17 18 18 18 17 17 16 15 14 15 15 14 14 13 13 13 12 12 12 11 11 12 12 12 13 14 15 15 15 14 14 14 14 14 14 14 14 13 13 13 14 14
16 17 18 18 18 18 17 16 15 14 14 14 14 13 13 12 12 12 12 12 12 12 12 12 13 13 14 14 14 13 13 13 14 14 14 14 14 14 14 14 14 15
17 17 18 18 17 17 16 16 15 14 14 14 14 13 13 12 12 12 12 12 12 12 13 13 13 14 15 16 15 13 13 13 13 13 14 15 17 18 18 18 17 17
18 17 18 18 17 16 16 16 16 16 16 16 14 14 14 14 14 13 13 13 12 13 13 12 14 16 17 17 14 13 14 14 13 13 14 16 18 19 20 19 17 15
18 18 18 18 18 17 16 15 16 16 17 18 16 14 14 15 14 14 14 14 13 13 13 14 17 18 16 16 15 14 14 15 16 17 16 15 15 17 18 18 17 16
17 17 17 17 17 17 17 16 16 16 16 17 16 15 14 14 14 13 14 14 14 14 14 15 18 19 17 16 16 15 15 15 17 19 18 16 16 17 19 19 19 20
15 15 16 16 16 15 16 17 17 16 16 16 16 16 16 16 14 12 13 13 14 14 14 15 17 19 19 17 16 16 16 17 19 19 17 18 19 19 20 20 21 21
14 14 14 14 14 13 14 16 17 17 16 16 16 16 17 17 17 15 13 13 13 14 14 15 17 19 18 17 16 15 15 17 19 19 18 19 20 20 20 21 21 20
14 13 13 13 12 12 12 14 16 16 16 16 16 17 17 18 19 18 16 15 15 16 15 16 19 19 17 17 17 16 16 17 18 19 19 20 21 20 19 19 18 17
13 12 12 13 13 12 11 11 11 12 14 15 16 16 17 18 19 19 18 17 18 19 16 15 19 20 17 17 17 17 18 19 18 19 19 18 20 18 17 18 19 20
12 11 12 12 12 12 12 11 11 11 13 14 15 16 17 17 17 18 19 18 19 19 17 15 19 21 19 19 19 19 20 20 21 22 21 20 19 17 17 20 23 23
12 12 12 12 12 12 11 10 11 12 13 13 14 16 17 17 16 17 17 18 19 19 18 18 21 22 22 22 23 22 22 21 21 22 22 21 19 16 17 21 23 24
12 13 12 13 16 17 15 12 12 12 12 13 15 16 16 16 15 14 15 17 18 19 18 19 20 21 22 23 23 22 22 22 21 22 22 22 20 18 20 23 24 24
Wind_Direction
201 200 199 200 201 200 203 205 206 207 208 209 214 217 217 215 210 207 211 216 218 220 223 223 228 229 227 235 233 223 224 222 226 246 251 248 252 255 258 262 266 267
203 204 203 202 204 205 204 204 205 210 214 212 211 217 220 218 215 214 216 219 220 223 227 229 233 237 234 236 239 232 234 238 235 246 256 252 248 254 258 260 266 269
205 207 207 206 209 210 209 211 211 211 217 220 219 219 220 219 221 222 222 222 222 224 230 234 237 243 243 241 242 239 240 245 242 240 252 255 250 250 256 261 265 269
207 208 209 210 215 216 214 217 219 217 217 223 224 221 216 215 220 226 228 227 226 226 229 235 237 240 244 244 243 243 244 249 249 245 249 256 256 254 255 261 264 265
212 211 210 210 214 218 218 218 221 222 224 224 223 222 222 219 218 224 233 235 234 234 234 239 241 242 246 248 246 245 246 252 260 261 258 256 259 262 262 263 264 265
214 215 215 214 215 218 219 221 223 222 224 226 223 222 226 226 225 225 230 234 235 236 236 239 242 242 243 247 247 244 242 240 245 256 261 261 260 258 257 261 264 265
214 216 216 216 218 221 222 222 224 223 221 223 223 222 222 224 229 230 231 232 232 235 235 235 240 241 238 242 248 249 247 243 243 251 258 262 261 258 255 257 263 266
212 213 216 216 216 220 223 222 223 223 222 221 222 225 226 224 228 232 235 235 232 236 239 238 242 245 242 241 245 247 249 250 254 260 263 262 263 264 263 260 263 268
210 212 215 217 215 217 220 220 221 222 224 223 221 225 229 228 228 228 234 237 234 235 240 241 243 246 243 242 243 245 247 247 248 254 260 262 264 267 268 265 264 266
210 211 213 215 215 217 218 219 219 220 223 224 223 225 228 231 232 228 232 240 239 240 244 245 245 246 244 244 246 249 251 252 252 253 256 259 260 261 261 258 258 261
210 210 213 214 214 217 219 219 219 220 223 224 224 225 225 229 234 233 234 240 241 241 244 246 246 245 246 244 244 249 252 254 256 257 258 258 259 260 259 256 256 257
211 211 213 215 215 216 218 219 219 220 222 224 223 225 225 226 231 234 236 239 240 238 239 244 245 244 246 247 245 246 250 252 254 256 258 259 259 260 261 260 259 258
215 213 213 215 217 217 217 218 220 220 221 223 223 223 225 226 228 231 233 238 242 240 237 240 245 244 246 248 247 244 246 249 252 254 255 256 257 257 257 257 257 258
218 218 216 215 216 217 217 217 219 220 219 221 222 222 223 225 227 230 234 237 240 241 238 240 244 246 247 249 248 245 245 248 252 253 253 253 254 255 257 260 261 260
219 221 222 221 220 222 220 216 217 221 221 221 222 224 225 227 228 228 232 235 236 238 239 238 241 245 246 247 247 246 246 249 253 254 254 253 252 253 254 255 257 259
223 223 224 224 224 226 226 221 217 217 221 223 224 227 227 228 230 229 231 235 237 240 242 242 243 243 243 244 245 246 248 249 251 253 253 249 248 251 254 254 256 260
227 225 224 223 222 224 225 225 222 218 219 221 223 228 230 232 234 235 236 237 239 242 244 246 245 242 246 253 254 251 249 249 251 253 254 255 257 259 263 264 265 266
229 228 226 222 220 220 221 224 225 224 225 226 226 228 233 237 239 240 241 241 242 244 245 247 247 246 252 263 265 258 250 247 248 248 250 256 264 268 270 272 272 271
227 227 229 227 223 222 222 222 223 224 227 231 232 230 232 236 238 240 244 244 243 245 246 249 251 252 254 261 265 265 259 253 252 254 255 255 257 264 270 272 274 274
226 223 227 231 229 225 223 223 223 223 224 227 230 233 234 236 237 239 243 245 246 248 251 255 255 254 254 258 262 266 268 267 266 268 269 267 264 266 268 269 271 273
226 219 221 228 231 229 227 226 226 226 227 227 228 232 235 237 237 236 240 244 248 249 252 254 255 256 259 259 257 263 270 272 272 272 272 272 271 270 271 273 273 272
230 221 218 220 223 224 227 231 231 229 230 230 231 231 232 234 235 235 238 244 248 250 251 254 257 262 265 261 257 262 268 268 271 274 275 275 275 273 275 277 272 268
231 229 225 224 224 224 226 229 230 231 232 232 234 234 234 236 238 237 237 240 244 247 250 256 261 262 263 262 261 265 268 269 271 274 275 278 277 273 271 267 260 261
223 227 230 230 228 225 224 223 221 226 232 233 234 237 239 241 244 246 246 246 245 245 246 255 262 263 263 263 263 264 266 269 271 273 275 277 278 277 273 266 261 262
216 222 227 230 229 223 221 228 233 235 240 242 241 243 245 245 246 249 250 252 253 251 250 256 265 268 269 268 267 266 266 268 270 273 274 274 275 276 269 263 263 266
217 224 230 238 240 233 227 239 256 254 249 249 247 243 244 247 249 249 248 250 255 257 257 260 267 271 271 271 270 269 269 271 271 270 272 272 272 269 265 263 265 271